Change the Weather History Date:

Thursday, January 23, 2014

  Actual Average Record
Temperature  
Mean Temperature -8 °F -  
Max Temperature 8 °F 18 °F 50 °F (1981)
Min Temperature -22 °F 0 °F -31 °F (1952)
Degree Days  
Heating Degree Days 73    
Moisture  
Dew Point -17 °F    
Average Humidity 74    
Maximum Humidity 78    
Minimum Humidity 64    
Precipitation  
Precipitation 0.00 in - - ()
Sea Level Pressure  
Sea Level Pressure 30.62 in    
Wind  
Wind Speed 10 mph (West)    
Max Wind Speed 23 mph    
Max Gust Speed 29 mph    
Visibility 10 miles    
Events      
Averages and records for this station are not official NWS values.
T = Trace of Precipitation, MM = Missing Value Source: NWS Daily Summary

Daily Weather History Graph

Daily Weather History Graph

Search for Another Location

Airport or City:

Trip Planner

Search our weather history database for the weather conditions in past years. The results will help you decide how hot, cold, wet, or windy it might be!

Date:

Astronomy

Jan. 23, 2014 Rise Set
Actual Time 7:53 AM CST 5:14 PM CST
Civil Twilight 7:20 AM CST 5:47 PM CST
Nautical Twilight 6:44 AM CST 6:23 PM CST
Astronomical Twilight 6:08 AM CST 6:58 PM CST
Moon 12:09 AM CST (1/23) 11:04 AM CST (1/23)
Length of Visible Light 10h 26m
Length of Day
9h 21m
Waning Gibbous, 55% of the Moon is Illuminated
Jan 23
Waning Gibbous
Jan 23
Last Quarter
Jan 30
New
Feb 6
First Quarter
Feb 14
Full

Hourly Weather History & Observations

Time (CST) Temp. Windchill Dew Point Humidity Pressure Visibility Wind Dir Wind Speed Gust Speed Precip Events Conditions
12:53 AM -16.1 °F -36.2 °F -22.0 °F 74% 30.69 in 10.0 mi NNW 10.4 mph - N/A   Clear
1:11 AM -16.6 °F -35.7 °F -23.8 °F 70% 30.54 in 10.0 mi NW 9.2 mph - N/A   Mostly Cloudy
1:48 AM -16.6 °F -32.9 °F -22.0 °F 76% 30.55 in 10.0 mi NW 6.9 mph - N/A   Scattered Clouds
1:53 AM -17.0 °F -34.8 °F -23.1 °F 74% 30.71 in 10.0 mi NW 8.1 mph - N/A   Partly Cloudy
2:53 AM -18.0 °F -37.5 °F -24.0 °F 74% 30.74 in 10.0 mi NW 9.2 mph - N/A   Clear
3:53 AM -18.0 °F -40.7 °F -24.0 °F 74% 30.74 in 10.0 mi NNW 12.7 mph - N/A   Clear
4:53 AM -18.0 °F -38.6 °F -24.0 °F 74% 30.76 in 10.0 mi NNW 10.4 mph - N/A   Clear
5:53 AM -20.0 °F -37.1 °F -25.1 °F 78% 30.79 in 10.0 mi NW 6.9 mph - N/A   Clear
6:53 AM -20.9 °F -38.1 °F -27.0 °F 73% 30.80 in 10.0 mi WNW 6.9 mph - N/A   Clear
7:53 AM -20.9 °F -34.3 °F -27.0 °F 73% 30.81 in 10.0 mi WNW 4.6 mph - N/A   Clear
8:53 AM -22.0 °F -37.7 °F -27.0 °F 77% 30.82 in 10.0 mi West 5.8 mph - N/A   Clear
9:53 AM -18.0 °F -36.1 °F -23.1 °F 78% 30.83 in 10.0 mi WNW 8.1 mph - N/A   Clear
10:53 AM -15.0 °F -34.8 °F -20.0 °F 78% 30.81 in 10.0 mi WNW 10.4 mph - N/A   Clear
11:53 AM -11.0 °F -27.6 °F -18.0 °F 71% 30.79 in 10.0 mi West 8.1 mph - N/A   Clear
12:53 PM -9.0 °F -29.3 °F -15.0 °F 75% 30.77 in 10.0 mi West 12.7 mph - N/A   Clear
1:53 PM -7.1 °F -25.0 °F -13.0 °F 75% 30.72 in 10.0 mi WSW 10.4 mph - N/A   Clear
2:53 PM -5.1 °F -19.1 °F -13.0 °F 69% 30.68 in 10.0 mi SW 6.9 mph - N/A   Clear
3:53 PM -5.1 °F -20.4 °F -11.0 °F 76% 30.66 in 10.0 mi SW 8.1 mph - N/A   Clear
4:53 PM -5.1 °F -22.5 °F -11.0 °F 76% 30.61 in 10.0 mi SSW 10.4 mph - N/A   Clear
5:53 PM -5.1 °F -23.5 °F -11.0 °F 76% 30.55 in 10.0 mi SSW 11.5 mph - N/A   Clear
6:53 PM -4.0 °F -23.7 °F -9.9 °F 76% 30.48 in 10.0 mi SSW 13.8 mph - N/A   Clear
7:53 PM -2.9 °F -24.4 °F -9.0 °F 75% 30.41 in 10.0 mi SSW 17.3 mph - N/A   Clear
8:53 PM 1.0 °F -18.7 °F -6.0 °F 72% 30.33 in 10.0 mi SSW 16.1 mph - N/A   Clear
9:53 PM 3.0 °F -18.3 °F -4.0 °F 73% 30.24 in 10.0 mi SSW 20.7 mph - N/A   Clear
10:53 PM 6.1 °F -13.8 °F -2.9 °F 67% 30.17 in 10.0 mi SSW 19.6 mph - N/A   Clear
11:53 PM 8.1 °F -12.6 °F -2.0 °F 64% 30.07 in 10.0 mi SSW 23.0 mph 28.8 mph N/A   Mostly Cloudy